Simultaneous Nadir Overpasses (SNOs) Predictions

Prediction of SNOs between METOP-B and NOAA-19 Satellite Orbit:

Table of predicted SNOs for the next 14.0 days since TLE Epoch: 1/30/2021
Index Date (METOP-B) Time (METOP-B) Lat,Lon (METOP-B) SZA (METOP-B ) Date (NOAA-19) Time (NOAA-19) Lat,Lon (NOAA-19) SZA (NOAA-19 ) Distance(km) Time Diff (sec)
1 02/09/2021 03:22:23 80.38, 155.90 95.69 02/09/2021 03:21:11 80.38, 156.07 95.68 3.15 72
2 02/09/2021 04:13:05 -80.37, -36.86 84.34 02/09/2021 04:12:08 -80.39, -36.91 84.34 2.44 57
3 02/09/2021 05:03:44 80.40, 130.74 95.69 02/09/2021 05:03:11 80.37, 130.71 95.66 2.46 33
4 02/09/2021 05:54:26 -80.39, -62.02 84.34 02/09/2021 05:54:07 -80.37, -61.93 84.35 2.81 19
5 02/09/2021 06:45:06 80.38, 105.26 95.65 02/09/2021 06:45:11 80.37, 105.36 95.64 2.72 5
6 02/09/2021 07:35:48 -80.38, -87.50 84.38 02/09/2021 07:36:08 -80.38, -87.61 84.38 2.15 20
7 02/09/2021 08:26:28 80.37, 79.78 95.61 02/09/2021 08:27:12 80.38, 79.67 95.62 2.18 44



Historial Predications of SNOs between METOP-B and NOAA-19
